When you browse on this site, cookies collect data to enhance your experience and personalize the content and advertising you see.
Visit our Privacy Policy to learn more. By continuing to use the site, you agree to this use of cookies and data.
  • In Switzerland
  • List of Countries
  • For 7 days
  • Water Temperature
  • Satellite Maps
  • Weather Map
  • Weather Widgets
  • user-avatar
    Login

    Hourly Weather Xinpu

    Today, 26 May, Sunday

    Time Temperature Precipitation Wind Pressure Humidity
    00:00 +24°C° 0 mm 3 mps 755 mmHg 78%
    01:00 +24°C° 0 mm 2 mps 755 mmHg 81%
    02:00 +24°C° 0 mm 2 mps 754 mmHg 82%
    03:00 +24°C° 0.4 mm 2 mps 754 mmHg 85%
    04:00 +24°C° 0.4 mm 3 mps 754 mmHg 87%
    05:00 +24°C° 0.4 mm 3 mps 754 mmHg 89%
    06:00 +24°C° 0.3 mm 3 mps 753 mmHg 89%
    07:00 +24°C° 0.3 mm 3 mps 753 mmHg 90%
    08:00 +24°C° 0.3 mm 3 mps 753 mmHg 90%
    09:00 +24°C° 0.2 mm 3 mps 753 mmHg 88%
    10:00 +25°C° 0.2 mm 3 mps 753 mmHg 87%
    11:00 +25°C° 0.2 mm 3 mps 753 mmHg 86%
    12:00 +26°C° 0.1 mm 3 mps 753 mmHg 83%
    13:00 +27°C° 0.1 mm 2 mps 752 mmHg 80%
    14:00 +27°C° 0.1 mm 2 mps 752 mmHg 76%
    15:00 +27°C° 0.1 mm 2 mps 751 mmHg 76%
    16:00 +27°C° 0.1 mm 2 mps 751 mmHg 75%
    17:00 +27°C° 0.1 mm 2 mps 751 mmHg 75%
    18:00 +26°C° 0 mm 2 mps 750 mmHg 79%
    19:00 +25°C° 0 mm 2 mps 750 mmHg 83%
    20:00 +24°C° 0 mm 2 mps 750 mmHg 87%
    21:00 +24°C° 0 mm 2 mps 750 mmHg 89%
    22:00 +24°C° 0 mm 2 mps 750 mmHg 91%
    23:00 +24°C° 0 mm 2 mps 750 mmHg 93%

    Tomorrow, 27 May, Monday

    Time Temperature Precipitation Wind Pressure Humidity
    00:00 +24°C° 0 mm 2 mps 750 mmHg 93%
    01:00 +24°C° 0 mm 2 mps 750 mmHg 94%
    02:00 +24°C° 0 mm 2 mps 749 mmHg 94%
    03:00 +24°C° 0.1 mm 2 mps 750 mmHg 94%
    04:00 +24°C° 0.1 mm 2 mps 750 mmHg 93%
    05:00 +24°C° 0.1 mm 2 mps 750 mmHg 93%
    06:00 +23°C° 0 mm 4 mps 751 mmHg 86%
    07:00 +23°C° 0 mm 7 mps 752 mmHg 78%
    08:00 +22°C° 0 mm 9 mps 753 mmHg 71%
    09:00 +23°C° 0 mm 9 mps 754 mmHg 64%
    10:00 +23°C° 0 mm 10 mps 755 mmHg 56%
    11:00 +24°C° 0 mm 10 mps 756 mmHg 49%
    12:00 +24°C° 0 mm 10 mps 757 mmHg 45%
    13:00 +26°C° 0 mm 9 mps 757 mmHg 42%
    14:00 +26°C° 0 mm 9 mps 758 mmHg 38%
    15:00 +26°C° 0 mm 9 mps 758 mmHg 37%
    16:00 +24°C° 0 mm 9 mps 758 mmHg 35%
    17:00 +24°C° 0 mm 8 mps 759 mmHg 33%
    18:00 +23°C° 0 mm 7 mps 759 mmHg 35%
    19:00 +22°C° 0 mm 5 mps 760 mmHg 37%
    20:00 +21°C° 0 mm 4 mps 761 mmHg 39%
    21:00 +21°C° 0 mm 3 mps 761 mmHg 39%
    22:00 +20°C° 0 mm 3 mps 762 mmHg 40%
    23:00 +20°C° 0 mm 2 mps 762 mmHg 40%

    Day after tomorrow, 28 May, Tuesday

    Time Temperature Precipitation Wind Pressure Humidity
    00:00 +19°C° 0 mm 2 mps 762 mmHg 40%
    01:00 +19°C° 0 mm 2 mps 762 mmHg 40%
    02:00 +18°C° 0 mm 2 mps 762 mmHg 41%
    03:00 +18°C° 0 mm 2 mps 762 mmHg 41%
    04:00 +17°C° 0 mm 2 mps 762 mmHg 42%
    05:00 +17°C° 0 mm 2 mps 762 mmHg 43%
    06:00 +19°C° 0 mm 2 mps 763 mmHg 39%
    07:00 +21°C° 0 mm 3 mps 763 mmHg 34%
    08:00 +24°C° 0 mm 3 mps 763 mmHg 30%
    09:00 +26°C° 0 mm 3 mps 763 mmHg 26%
    10:00 +27°C° 0 mm 3 mps 763 mmHg 21%
    11:00 +28°C° 0 mm 3 mps 763 mmHg 17%
    12:00 +29°C° 0 mm 2 mps 763 mmHg 16%
    13:00 +30°C° 0 mm 2 mps 762 mmHg 15%
    14:00 +31°C° 0 mm 2 mps 762 mmHg 15%
    15:00 +30°C° 0 mm 2 mps 761 mmHg 15%
    16:00 +30°C° 0 mm 2 mps 761 mmHg 16%
    17:00 +30°C° 0 mm 2 mps 760 mmHg 16%
    18:00 +28°C° 0 mm 2 mps 761 mmHg 18%
    19:00 +27°C° 0 mm 3 mps 761 mmHg 19%
    20:00 +25°C° 0 mm 3 mps 761 mmHg 21%
    21:00 +23°C° 0 mm 4 mps 761 mmHg 22%
    22:00 +22°C° 0 mm 4 mps 761 mmHg 23%
    23:00 +21°C° 0 mm 4 mps 761 mmHg 24%

    29 May, Wednesday

    Time Temperature Precipitation Wind Pressure Humidity
    00:00 +21°C° 0 mm 4 mps 761 mmHg 25%
    01:00 +20°C° 0 mm 4 mps 761 mmHg 26%
    02:00 +19°C° 0 mm 3 mps 760 mmHg 28%
    03:00 +19°C° 0 mm 3 mps 760 mmHg 28%
    04:00 +19°C° 0 mm 3 mps 760 mmHg 29%
    05:00 +18°C° 0 mm 3 mps 760 mmHg 30%
    06:00 +21°C° 0 mm 3 mps 760 mmHg 28%
    07:00 +23°C° 0 mm 4 mps 760 mmHg 27%
    08:00 +26°C° 0 mm 4 mps 760 mmHg 25%
    09:00 +28°C° 0 mm 4 mps 760 mmHg 23%
    10:00 +30°C° 0 mm 4 mps 760 mmHg 21%
    11:00 +33°C° 0 mm 4 mps 760 mmHg 19%
    12:00 +34°C° 0 mm 4 mps 759 mmHg 17%
    13:00 +35°C° 0 mm 4 mps 758 mmHg 16%
    14:00 +36°C° 0 mm 4 mps 757 mmHg 15%
    15:00 +35°C° 0 mm 5 mps 757 mmHg 15%
    16:00 +35°C° 0 mm 5 mps 757 mmHg 16%
    17:00 +34°C° 0 mm 5 mps 757 mmHg 16%
    18:00 +32°C° 0 mm 5 mps 757 mmHg 18%
    19:00 +29°C° 0 mm 5 mps 757 mmHg 20%
    20:00 +28°C° 0 mm 4 mps 757 mmHg 22%
    21:00 +27°C° 0 mm 4 mps 757 mmHg 23%
    22:00 +27°C° 0 mm 5 mps 758 mmHg 24%
    23:00 +27°C° 0 mm 5 mps 758 mmHg 25%

    30 May, Thursday

    Time Temperature Precipitation Wind Pressure Humidity
    00:00 +26°C° 0 mm 5 mps 757 mmHg 26%
    01:00 +25°C° 0 mm 4 mps 757 mmHg 27%
    02:00 +25°C° 0 mm 4 mps 757 mmHg 27%
    03:00 +23°C° 0 mm 4 mps 756 mmHg 28%
    04:00 +22°C° 0 mm 4 mps 756 mmHg 28%
    05:00 +22°C° 0 mm 4 mps 756 mmHg 29%
    06:00 +22°C° 0 mm 4 mps 756 mmHg 29%
    07:00 +22°C° 0 mm 3 mps 757 mmHg 29%
    08:00 +22°C° 0 mm 3 mps 757 mmHg 30%
    09:00 +24°C° 0 mm 3 mps 756 mmHg 30%
    10:00 +25°C° 0 mm 2 mps 756 mmHg 30%
    11:00 +26°C° 0 mm 2 mps 756 mmHg 30%
    12:00 +28°C° 0 mm 2 mps 755 mmHg 28%
    13:00 +30°C° 0 mm 2 mps 755 mmHg 26%
    14:00 +32°C° 0 mm 2 mps 754 mmHg 24%
    15:00 +32°C° 0 mm 2 mps 754 mmHg 26%
    16:00 +31°C° 0 mm 2 mps 754 mmHg 27%
    17:00 +31°C° 0 mm 1 mps 754 mmHg 28%
    18:00 +29°C° 0 mm 2 mps 754 mmHg 30%
    19:00 +28°C° 0 mm 2 mps 755 mmHg 32%
    20:00 +27°C° 0 mm 2 mps 755 mmHg 34%
    21:00 +26°C° 0 mm 2 mps 756 mmHg 37%
    22:00 +25°C° 0 mm 2 mps 756 mmHg 40%
    23:00 +24°C° 0 mm 1 mps 757 mmHg 42%

    31 May, Friday

    Time Temperature Precipitation Wind Pressure Humidity
    00:00 +23°C° 0 mm 2 mps 757 mmHg 43%
    01:00 +23°C° 0 mm 2 mps 756 mmHg 43%
    02:00 +21°C° 0 mm 2 mps 756 mmHg 43%
    03:00 +21°C° 0 mm 2 mps 757 mmHg 43%
    04:00 +21°C° 0 mm 2 mps 757 mmHg 43%
    05:00 +20°C° 0 mm 2 mps 757 mmHg 44%
    06:00 +23°C° 0 mm 2 mps 757 mmHg 41%
    07:00 +25°C° 0 mm 3 mps 757 mmHg 39%
    08:00 +26°C° 0 mm 3 mps 757 mmHg 37%
    09:00 +27°C° 0 mm 3 mps 757 mmHg 35%
    10:00 +28°C° 0 mm 4 mps 757 mmHg 34%
    11:00 +29°C° 0 mm 4 mps 757 mmHg 32%
    12:00 +29°C° 0 mm 4 mps 756 mmHg 32%
    13:00 +29°C° 0 mm 4 mps 756 mmHg 32%
    14:00 +29°C° 0 mm 4 mps 755 mmHg 31%
    15:00 +28°C° 0 mm 4 mps 755 mmHg 34%
    16:00 +28°C° 0 mm 4 mps 755 mmHg 36%
    17:00 +27°C° 0 mm 3 mps 755 mmHg 38%
    18:00 +25°C° 0 mm 3 mps 755 mmHg 45%
    19:00 +22°C° 0 mm 3 mps 755 mmHg 52%
    20:00 +21°C° 0 mm 3 mps 756 mmHg 59%
    21:00 +20°C° 0 mm 2 mps 756 mmHg 62%
    22:00 +19°C° 0 mm 2 mps 756 mmHg 65%
    23:00 +19°C° 0 mm 2 mps 756 mmHg 68%
    Show more